User: anonymous   Login
Location: Unspecified
(17.6330°N, 0.0000°E)
Time: 16:32:59
(UTC+00:00)
Language:

SO-50 - Orbit

View from above orbital plane
View from above orbital plane
View from above satellite
View from above satellite

Ground track
Ground track

The orbit data is extracted from the following two-line orbital elements,

1 27607U 02058C   19233.39026792 -.00000060  00000-0  12539-4 0  9994
2 27607  64.5535 214.8447 0078724 244.2668 115.0294 14.75565588896438
Epoch (UTC): 21 August 2019 09:21:59
Eccentricity: 0.0078724
inclination: 64.5535°
perigee height: 588 km
apogee height: 698 km
right ascension of ascending node: 214.8447°
argument of perigee: 244.2668°
revolutions per day: 14.75565588
mean anomaly at epoch: 115.0294°
orbit number at epoch: 89643

The dashed part of the orbit path shows where the satellite is in the earth's shadow,  

DLR